Location: Mascot Post Office (historical)
(40.2645°N, 99.5462°W)
Time: 02:21:10
(UTC+00:00)

Cosmos 44 - Pass Details

Date: 14 July 2020
Orbit: 586 x 776 km, 65.1° (Epoch: 14 August)

Event Time Altitude Azimuth Distance (km) Brightness Sun altitude
Rises 02:43:10 0° 176° (S) 2,796 6.0 -6.5°
Reaches altitude 10° 02:45:47 10° 161° (SSE) 1,901 5.1 -7.0°
Maximum altitude 02:49:01 21° 111° (ESE) 1,330 4.2 -7.4°
Drops below altitude 10° 02:52:18 10° 61° (ENE) 1,938 5.4 -7.9°
Sets 02:55:00 0° 46° (NE) 2,867 6.4 -8.4°
